P/2001 R6 ( LINEAR-Skiff )

Japanese version
Home page
Updated on September 10, 2018

---------------------------------------------------------------------

* Profile

Discovery Date September 11 and 25, 2001
Magnitude 17.0 mag
Discoverer Lincoln Laboratory Near-Earth Asteroid Research project, B. A. Skiff (Lowell Observatory)

* Orbital Elements

Epoch 2001 Oct. 18.0 TT = JDT 2452200.5
T 2001 Oct. 27.09619 TT                                 MPCW
q   2.1150912            (2000.0)            P               Q
n   0.11808859     Peri.  306.19393     +0.92418541     -0.25899768
a   4.1146297      Node    70.32204     +0.36786519     +0.80130246
e   0.4859583      Incl.   17.34512     -0.10274495     +0.53929081
P   8.35
From 95 observations 2001 Aug. 19-2018 Sept. 8, mean residual 0".6.

* Finding Charts

* Magnitudes Graph

        m1 = 6.8 + 5 log d + 30.0 log r

---------------------------------------------------------------------

The orbital elements are published on M.P.E.C. 2018-R59.
The charts are made with StellaNavigator Ver.2.0 for Windows (AstroArts / ASCII).
The magnitudes graphs are made with Comet for Windows.

---------------------------------------------------------------------

Copyright(C) Seiichi Yoshida (comet@aerith.net). All rights reserved.